This demonstration page uses our WeatherBlox Daily Observations layout. Learn more.

38.89511, -77.03637

Hourly Observations for October 16, 2015

Temp ( °F °C ) Dew Point ( °F °C ) Humidity (%) Winds ( mph kmh ) Pressure ( in mb ) Visibility ( mi km ) Precip ( " mm )
12:52 am 00:52 Partly Cloudy 56 13.3 48 8.9 75 75 S 9 15 29.99 1016 10 16.0934 0 0
1:52 am 01:52 Mostly Cloudy 54 12.2 46 7.8 75 75 Calm 30 1016 10 16.0934 0 0
2:52 am 02:52 Mostly Cloudy 54 12.2 45 7.2 72 72 S 7 11 29.98 1015 10 16.0934 0 0
3:52 am 03:52 Mostly Cloudy 52 11.1 44 6.7 75 75 SW 5 7 29.96 1015 10 16.0934 0 0
4:26 am 04:26 Mostly Cloudy 52 11 45 7 77 77 SW 6 9 29.97 1015 10 16.0934 0 0
4:52 am 04:52 Mostly Cloudy 52 11.1 45 7.2 77 77 WSW 3 6 29.96 1015 10 16.0934 0 0
5:52 am 05:52 Partly Cloudy 53 11.7 44 6.7 72 72 NW 5 7 30.01 1016 10 16.0934 0 0
6:52 am 06:52 Partly Cloudy 52 11.1 42 5.6 69 69 N 7 11 30.03 1017 10 16.0934 0 0
7:52 am 07:52 Partly Cloudy 52 11.1 42 5.6 69 69 N 5 7 30.04 1017 10 16.0934 0 0
8:52 am 08:52 Partly Cloudy 56 13.3 44 6.7 65 65 NNW 10 17 30.07 1018 10 16.0934 0 0
9:52 am 09:52 Partly Cloudy 60 15.6 43 6.1 53 53 NNW 10 17 30.09 1019 10 16.0934 0 0
10:52 am 10:52 Partly Cloudy 61 16.1 44 6.7 54 54 NW 15 24 30.08 1019 10 16.0934 0 0
11:52 am 11:52 Partly Cloudy 64 17.8 43 6.1 46 46 NNW 12 19 30.07 1018 10 16.0934 0 0
12:52 pm 12:52 Partly Cloudy 65 18.3 41 5 42 42 NNW 18 30 30.08 1019 10 16.0934 0 0
1:52 pm 13:52 Partly Cloudy 66 18.9 40 4.4 39 39 NNW 14 22 30.06 1018 10 16.0934 0 0
2:52 pm 14:52 Partly Cloudy 66 18.9 39 3.9 37 37 NW 14 22 30.06 1018 10 16.0934 0 0
3:52 pm 15:52 Partly Cloudy 67 19.4 37 2.8 33 33 NNW 16 26 30.06 1018 10 16.0934 0 0
4:52 pm 16:52 Mostly Sunny 65 18.3 37 2.8 36 36 NNW 10 17 30.07 1018 10 16.0934 0 0
5:52 pm 17:52 Mostly Sunny 64 17.8 35 1.7 34 34 NNW 12 19 30.07 1018 10 16.0934 0 0
6:52 pm 18:52 Mostly Clear 61 16.1 35 1.7 38 38 NW 7 11 30.09 1019 10 16.0934 0 0
7:52 pm 19:52 Clear 61 16.1 34 1.1 36 36 WNW 9 15 30.11 1020 10 16.0934 0 0
8:52 pm 20:52 Clear 60 15.6 33 0.6 36 36 NW 12 19 30.11 1020 10 16.0934 0 0
9:52 pm 21:52 Clear 58 14.4 34 1.1 41 41 NNW 14 22 30.12 1020 10 16.0934 0 0
10:52 pm 22:52 Clear 54 12.2 35 1.7 49 49 NNW 6 9 30.14 1021 10 16.0934 0 0
11:52 pm 23:52 Clear 54 12.2 35 1.7 49 49 NNE 3 6 30.14 1021 10 16.0934 0 0

Powered by AerisWeather